This is the latest recevied weather packets stored in our database for station/object KI6SYE. If no packets are shown the sender has not sent any weather packets the latest 10 day(s).
| Time | Temp. | Humidity | Pressure | Rain* | Wind** | Luminosity | Snow |
|---|---|---|---|---|---|---|---|
| 1788233309 | 20.56° C | 87% | 1012.7 hPa | 0 mm | - | 0 W/m² | - |
| 1788233008 | 20.56° C | 86% | 1012.7 hPa | 0 mm | - | 0 W/m² | - |
| 1788232704 | 20.56° C | 85% | 1012.6 hPa | 0 mm | - | 0 W/m² | - |
| 1788232400 | 20.56° C | 85% | 1012.4 hPa | 0 mm | - | 0 W/m² | - |
| 1788232100 | 20.56° C | 85% | 1012.4 hPa | 0 mm | - | 0 W/m² | - |
| 1788231801 | 20.56° C | 85% | 1012.3 hPa | 0 mm | - | 0 W/m² | - |
| 1788231494 | 20.56° C | 85% | 1012.4 hPa | 0 mm | - | 0 W/m² | - |
| 1788231189 | 20.56° C | 84% | 1012.3 hPa | 0 mm | - | 0 W/m² | - |
| 1788230884 | 20.56° C | 85% | 1012.3 hPa | 0 mm | - | 0 W/m² | - |
| 1788230583 | 20.56° C | 85% | 1012 hPa | 0 mm | - | 0 W/m² | - |
| 1788230281 | 20.56° C | 85% | 1012 hPa | 0 mm | - | 0 W/m² | - |
| 1788229976 | 20.56° C | 85% | 1012.3 hPa | 0 mm | - | 1 W/m² | - |
| 1788229672 | 20.56° C | 85% | 1012.1 hPa | 0 mm | - | 1 W/m² | - |
| 1788229367 | 20.56° C | 85% | 1012.3 hPa | 0 mm | - | 3 W/m² | - |
| 1788229062 | 20.56° C | 84% | 1012.3 hPa | 0 mm | - | 5 W/m² | - |
| 1788228758 | 20.56° C | 84% | 1012.2 hPa | 0 mm | - | 8 W/m² | - |
| 1788228453 | 21.11° C | 84% | 1012.2 hPa | 0 mm | - | 11 W/m² | - |
| 1788228149 | 20.56° C | 84% | 1012.4 hPa | 0 mm | - | 14 W/m² | - |
| 1788227849 | 21.11° C | 83% | 1012.3 hPa | 0 mm | - | 18 W/m² | - |
| 1788227545 | 21.67° C | 82% | 1012.3 hPa | 0 mm | - | 23 W/m² | - |
| 1788227244 | 21.67° C | 82% | 1012.4 hPa | 0 mm | - | 27 W/m² | - |
| 1788226940 | 21.67° C | 82% | 1012.2 hPa | 0 mm | - | 33 W/m² | - |
| 1788226635 | 21.67° C | 82% | 1012.4 hPa | 0 mm | - | 36 W/m² | - |
| 1788226332 | 21.67° C | 82% | 1012.2 hPa | 0 mm | - | 42 W/m² | - |
| 1788226027 | 21.67° C | 82% | 1012.1 hPa | 0 mm | - | 50 W/m² | - |
* Rain latest hour (hover to see other rain measurements)
** Current wind speed in m/s (hover to see current wind gust speed)